When you browse on this site, cookies collect data to enhance your experience and personalize the content and advertising you see.
Visit our Privacy Policy to learn more. By continuing to use the site, you agree to this use of cookies and data.

Hourly Weather Totonicapán

Today, 4 August, Tuesday

Time Temperature Precipitation Wind Pressure Humidity
00:00 +12°C° 0 mm 1 mps 555 mmHg 91%
01:00 +12°C° 0.4 mm 1 mps 555 mmHg 92%
02:00 +11°C° 0.4 mm 1 mps 554 mmHg 93%
03:00 +11°C° 0.4 mm 1 mps 553 mmHg 94%
04:00 +11°C° 0 mm 1 mps 553 mmHg 93%
05:00 +11°C° 0 mm 1 mps 554 mmHg 93%
06:00 +11°C° 0 mm 1 mps 554 mmHg 92%
07:00 +13°C° 0.1 mm 1 mps 555 mmHg 87%
08:00 +15°C° 0.1 mm 1 mps 556 mmHg 83%
09:00 +18°C° 0.1 mm 1 mps 558 mmHg 78%
10:00 +18°C° 0.7 mm 1 mps 558 mmHg 77%
11:00 +19°C° 0.7 mm 1 mps 558 mmHg 75%
12:00 +20°C° 0.7 mm 1 mps 558 mmHg 74%
13:00 +19°C° 1.4 mm 1 mps 558 mmHg 77%
14:00 +19°C° 1.4 mm 1 mps 557 mmHg 80%
15:00 +19°C° 1.4 mm 1 mps 556 mmHg 83%
16:00 +18°C° 1.2 mm 1 mps 556 mmHg 86%
17:00 +16°C° 1.2 mm 1 mps 555 mmHg 90%
18:00 +15°C° 1.2 mm 1 mps 555 mmHg 93%
19:00 +14°C° 0.7 mm 1 mps 555 mmHg 93%
20:00 +13°C° 0.7 mm 1 mps 555 mmHg 92%
21:00 +12°C° 0.7 mm 1 mps 555 mmHg 92%
22:00 +12°C° 0.6 mm 1 mps 554 mmHg 92%
23:00 +11°C° 0.6 mm 1 mps 554 mmHg 92%

Tomorrow, 5 August, Wednesday

Time Temperature Precipitation Wind Pressure Humidity
00:00 +11°C° 0.6 mm 1 mps 554 mmHg 92%
01:00 +11°C° 0.2 mm 1 mps 553 mmHg 92%
02:00 +11°C° 0.2 mm 1 mps 553 mmHg 92%
03:00 +10°C° 0.2 mm 1 mps 553 mmHg 92%
04:00 +10°C° 0 mm 1 mps 553 mmHg 92%
05:00 +10°C° 0 mm 1 mps 553 mmHg 92%
06:00 +10°C° 0 mm 1 mps 552 mmHg 92%
07:00 +12°C° 0.1 mm 1 mps 554 mmHg 86%
08:00 +14°C° 0.1 mm 1 mps 556 mmHg 80%
09:00 +18°C° 0.1 mm 1 mps 557 mmHg 75%
10:00 +18°C° 0.7 mm 1 mps 557 mmHg 74%
11:00 +18°C° 0.7 mm 2 mps 557 mmHg 72%
12:00 +19°C° 0.7 mm 2 mps 557 mmHg 71%
13:00 +18°C° 1.2 mm 2 mps 557 mmHg 75%
14:00 +18°C° 1.2 mm 2 mps 556 mmHg 78%
15:00 +17°C° 1.2 mm 2 mps 555 mmHg 82%
16:00 +16°C° 1.3 mm 1 mps 555 mmHg 85%
17:00 +15°C° 1.3 mm 1 mps 554 mmHg 89%
18:00 +14°C° 1.3 mm 1 mps 554 mmHg 92%
19:00 +13°C° 0.5 mm 1 mps 554 mmHg 92%
20:00 +11°C° 0.5 mm 0 mps 553 mmHg 91%
21:00 +10°C° 0.5 mm 0 mps 553 mmHg 91%
22:00 +11°C° 0.7 mm 1 mps 553 mmHg 93%
23:00 +11°C° 0.7 mm 1 mps 553 mmHg 95%

Day after tomorrow, 6 August, Thursday

Time Temperature Precipitation Wind Pressure Humidity
00:00 +11°C° 0.7 mm 1 mps 553 mmHg 97%
01:00 +11°C° 0.2 mm 1 mps 553 mmHg 96%
02:00 +10°C° 0.2 mm 1 mps 552 mmHg 95%
03:00 +10°C° 0.2 mm 1 mps 552 mmHg 94%
04:00 +10°C° 0 mm 1 mps 552 mmHg 93%
05:00 +10°C° 0 mm 1 mps 552 mmHg 92%
06:00 +10°C° 0 mm 1 mps 552 mmHg 91%
07:00 +12°C° 0 mm 1 mps 553 mmHg 83%
08:00 +14°C° 0 mm 1 mps 555 mmHg 74%
09:00 +18°C° 0 mm 1 mps 557 mmHg 65%
10:00 +18°C° 0.5 mm 1 mps 557 mmHg 68%
11:00 +17°C° 0.5 mm 2 mps 557 mmHg 70%
12:00 +18°C° 0.5 mm 2 mps 556 mmHg 72%
13:00 +17°C° 1.4 mm 2 mps 556 mmHg 76%
14:00 +17°C° 1.4 mm 2 mps 555 mmHg 79%
15:00 +16°C° 1.4 mm 2 mps 554 mmHg 83%
16:00 +15°C° 1.3 mm 2 mps 554 mmHg 87%
17:00 +14°C° 1.3 mm 1 mps 554 mmHg 91%
18:00 +13°C° 1.3 mm 1 mps 553 mmHg 96%
19:00 +13°C° 0.7 mm 1 mps 553 mmHg 96%
20:00 +12°C° 0.7 mm 1 mps 554 mmHg 97%
21:00 +12°C° 0.7 mm 1 mps 554 mmHg 97%
22:00 +12°C° 1.5 mm 1 mps 554 mmHg 97%
23:00 +12°C° 1.5 mm 1 mps 554 mmHg 98%

7 August, Friday

Time Temperature Precipitation Wind Pressure Humidity
00:00 +12°C° 1.5 mm 1 mps 554 mmHg 98%
01:00 +11°C° 1.3 mm 1 mps 554 mmHg 98%
02:00 +11°C° 1.3 mm 1 mps 553 mmHg 97%
03:00 +11°C° 1.3 mm 1 mps 553 mmHg 97%
04:00 +11°C° 0.1 mm 1 mps 553 mmHg 96%
05:00 +11°C° 0.1 mm 1 mps 553 mmHg 95%
06:00 +11°C° 0.1 mm 1 mps 553 mmHg 94%
07:00 +12°C° 0 mm 1 mps 554 mmHg 87%
08:00 +14°C° 0 mm 1 mps 555 mmHg 79%
09:00 +15°C° 0 mm 1 mps 556 mmHg 72%
10:00 +17°C° 0.1 mm 2 mps 557 mmHg 66%
11:00 +18°C° 0.1 mm 2 mps 557 mmHg 61%
12:00 +19°C° 0.1 mm 3 mps 557 mmHg 55%
13:00 +18°C° 0.3 mm 3 mps 557 mmHg 58%
14:00 +18°C° 0.3 mm 3 mps 556 mmHg 62%
15:00 +18°C° 0.3 mm 3 mps 556 mmHg 65%
16:00 +16°C° 0.8 mm 2 mps 555 mmHg 75%
17:00 +15°C° 0.8 mm 2 mps 555 mmHg 86%
18:00 +13°C° 0.8 mm 1 mps 554 mmHg 96%
19:00 +13°C° 0.5 mm 1 mps 554 mmHg 96%
20:00 +12°C° 0.5 mm 1 mps 554 mmHg 97%
21:00 +12°C° 0.5 mm 1 mps 554 mmHg 97%
22:00 +11°C° 0.1 mm 1 mps 554 mmHg 97%
23:00 +11°C° 0.1 mm 1 mps 554 mmHg 97%

8 August, Saturday

Time Temperature Precipitation Wind Pressure Humidity
00:00 +11°C° 0.1 mm 1 mps 554 mmHg 97%
01:00 +11°C° 0 mm 1 mps 554 mmHg 97%
02:00 +11°C° 0 mm 1 mps 553 mmHg 96%
03:00 +10°C° 0 mm 1 mps 553 mmHg 96%
04:00 +10°C° 0 mm 1 mps 553 mmHg 95%
05:00 +10°C° 0 mm 1 mps 553 mmHg 94%
06:00 +10°C° 0 mm 1 mps 553 mmHg 93%
07:00 +12°C° 0 mm 1 mps 555 mmHg 86%
08:00 +14°C° 0 mm 1 mps 556 mmHg 79%
09:00 +16°C° 0 mm 1 mps 557 mmHg 72%
10:00 +18°C° 0.4 mm 1 mps 557 mmHg 73%
11:00 +17°C° 0.4 mm 2 mps 557 mmHg 74%
12:00 +17°C° 0.4 mm 2 mps 557 mmHg 75%
13:00 +17°C° 1.7 mm 2 mps 557 mmHg 80%
14:00 +16°C° 1.7 mm 2 mps 556 mmHg 85%
15:00 +16°C° 1.7 mm 2 mps 555 mmHg 90%
16:00 +15°C° 1.4 mm 1 mps 555 mmHg 92%
17:00 +14°C° 1.4 mm 1 mps 555 mmHg 94%
18:00 +14°C° 1.4 mm 1 mps 555 mmHg 96%
19:00 +13°C° 0.4 mm 1 mps 554 mmHg 96%
20:00 +12°C° 0.4 mm 1 mps 554 mmHg 96%
21:00 +11°C° 0.4 mm 1 mps 554 mmHg 97%
22:00 +10°C° 0.1 mm 1 mps 554 mmHg 96%
23:00 +10°C° 0.1 mm 1 mps 554 mmHg 96%

9 August, Sunday

Time Temperature Precipitation Wind Pressure Humidity
00:00 +10°C° 0.1 mm 1 mps 554 mmHg 95%
01:00 +10°C° 0 mm 1 mps 553 mmHg 94%
02:00 +10°C° 0 mm 1 mps 553 mmHg 93%
03:00 +9°C° 0 mm 1 mps 552 mmHg 92%
04:00 +10°C° 0 mm 1 mps 553 mmHg 92%
05:00 +10°C° 0 mm 1 mps 553 mmHg 91%
06:00 +11°C° 0 mm 1 mps 553 mmHg 91%
07:00 +12°C° 0 mm 1 mps 554 mmHg 90%
08:00 +12°C° 0 mm 1 mps 555 mmHg 88%
09:00 +12°C° 0 mm 0 mps 555 mmHg 86%
10:00 +16°C° 0.1 mm 1 mps 556 mmHg 77%
11:00 +18°C° 0.1 mm 2 mps 557 mmHg 69%
12:00 +20°C° 0.1 mm 2 mps 558 mmHg 60%
13:00 +18°C° 1.2 mm 2 mps 557 mmHg 71%
14:00 +17°C° 1.2 mm 2 mps 555 mmHg 81%
15:00 +15°C° 1.2 mm 1 mps 554 mmHg 92%
16:00 +14°C° 1.5 mm 1 mps 554 mmHg 94%
17:00 +14°C° 1.5 mm 1 mps 554 mmHg 95%
18:00 +13°C° 1.5 mm 1 mps 553 mmHg 97%
19:00 +12°C° 1.9 mm 0 mps 554 mmHg 97%
20:00 +11°C° 1.9 mm 0 mps 554 mmHg 97%
21:00 +11°C° 1.9 mm 0 mps 554 mmHg 97%
22:00 +11°C° 1.9 mm 0 mps 554 mmHg 98%
23:00 +11°C° 1.9 mm 0 mps 554 mmHg 98%
Show more